Terminal Aerodrome Forecast
Issued by NWS Hastings, NE

Home | Current Version | Previous Version | Text Only | Print | Product List | Glossary On
Versions: 1 2 3 4 5 6 7 8 9 10 11 12 13 14 15 16 17 18 19 20 21 22 23 24 25 26 27 28 29 30 31 32
000
FTUS43 KGID 221120
TAFGRI
TAF
KGRI 221120Z 2212/2312 VRB06KT P6SM SCT150
      TEMPO 2212/2214 5SM BR
     FM222000 08010KT P6SM SCT050
     FM230100 09010KT P6SM VCTS SCT050CB BKN100
     FM230800 12010KT P6SM BKN080 WS010/21035KT=

USA.gov is the U.S. government's official web portal to all federal, state and local government web resources and services.